Weather History for Bluefield, WV

Change the Weather History Date:

Wednesday, February 13, 2013

  Actual Average Record
Temperature  
Mean Temperature 38 °F 37 °F  
Max Temperature 43 °F 45 °F 63 °F (1990)
Min Temperature 32 °F 29 °F 4 °F (1988)
Degree Days  
Heating Degree Days 27 28  
Month to date heating degree days 377 378  
Since 1 July heating degree days 2953 3098  
Cooling Degree Days 0 0  
Month to date cooling degree days 0 0  
Year to date cooling degree days 1 0  
Moisture  
Dew Point 30 °F    
Average Humidity 63    
Maximum Humidity 89    
Minimum Humidity 36    
Precipitation  
Precipitation 0.13 in 0.10 in 1.74 in (1960)
Month to date precipitation 0.72 1.24  
Year to date precipitation 6.72 4.14  
Snow  
Snow T in - - ()
Month to date snowfall 6.0  
Since 1 July snowfall 34.5  
Snow Depth 0.00 in    
Sea Level Pressure  
Sea Level Pressure 29.72 in    
Wind  
Wind Speed 8 mph (West)    
Max Wind Speed 20 mph    
Max Gust Speed 30 mph    
Visibility 7 miles    
Events Fog , Rain , Snow    
T = Trace of Precipitation, MM = Missing Value Source: NWS Daily Summary

Daily Weather History Graph

Daily Weather History Graph

Search for Another Location

Airport:

Trip Planner

Search our weather history database for the weather conditions in past years. The results will help you decide how hot, cold, wet, or windy it might be!

Date:

Astronomy

Feb. 13, 2013 Rise Set
Actual Time 7:15 AM EST 6:02 PM EST
Civil Twilight 6:49 AM EST 6:29 PM EST
Nautical Twilight 6:18 AM EST 7:00 PM EST
Astronomical Twilight 5:48 AM EST 7:30 PM EST
Moon 8:50 AM EST (2/13) 9:57 PM EST (2/13)
Length of Visible Light 11h 40m
Length of Day
10h 46m
Waxing Crescent, 13% of the Moon is Illuminated
Feb 13
Waxing Crescent
Feb 17
First Quarter
Feb 25
Full
Mar 4
Last Quarter
Mar 11
New

Hourly Weather History & Observations

Time (EST) Temp. Windchill Dew Point Humidity Pressure Visibility Wind Dir Wind Speed Gust Speed Precip Events Conditions
12:52 AM 39.9 °F 37.8 °F 19.0 °F 43% 29.86 in 10.0 mi ESE 3.5 mph - N/A   Overcast
1:52 AM 41.0 °F 38.0 °F 18.0 °F 40% 29.83 in 10.0 mi East 4.6 mph - N/A   Overcast
2:52 AM 41.0 °F - 19.0 °F 41% 29.82 in 10.0 mi Calm Calm - N/A   Overcast
3:52 AM 41.0 °F 39.0 °F 21.0 °F 45% 29.78 in 10.0 mi ESE 3.5 mph - N/A   Overcast
4:52 AM 39.9 °F - 24.1 °F 53% 29.76 in 10.0 mi Calm Calm - N/A   Overcast
5:52 AM 39.9 °F - 27.0 °F 60% 29.74 in 10.0 mi Calm Calm - N/A   Overcast
6:52 AM 39.9 °F 35.1 °F 26.1 °F 58% 29.72 in 10.0 mi East 6.9 mph - N/A   Overcast
7:52 AM 39.9 °F 34.5 °F 30.0 °F 68% 29.70 in 10.0 mi East 8.1 mph - 0.00 in Rain Light Rain
8:52 AM 39.9 °F 35.8 °F 33.1 °F 77% 29.68 in 10.0 mi Variable 5.8 mph - 0.00 in   Overcast
9:09 AM 39.2 °F 33.0 °F 33.8 °F 81% 29.68 in 10.0 mi SE 9.2 mph 18.4 mph N/A   Overcast
9:52 AM 39.9 °F 32.9 °F 34.0 °F 79% 29.65 in 10.0 mi SE 11.5 mph - 0.00 in   Overcast
10:52 AM 41.0 °F 32.8 °F 35.1 °F 79% 29.64 in 10.0 mi SSE 16.1 mph 26.5 mph 0.03 in   Overcast
11:06 AM 41.0 °F 33.9 °F 35.6 °F 81% 29.63 in 7.0 mi SSE 12.7 mph 25.3 mph 0.01 in Rain Light Rain
11:52 AM 41.0 °F 33.5 °F 36.0 °F 82% 29.62 in 10.0 mi SSE 13.8 mph 26.5 mph 0.02 in   Overcast
12:52 PM 41.0 °F 34.3 °F 36.0 °F 82% 29.59 in 8.0 mi South 11.5 mph 21.9 mph 0.01 in Rain Light Rain
1:52 PM 42.1 °F 38.4 °F 37.0 °F 82% 29.58 in 10.0 mi SW 5.8 mph - 0.03 in Rain Light Rain
2:37 PM 42.8 °F 38.6 °F 37.4 °F 81% 29.57 in 10.0 mi South 6.9 mph - 0.01 in Rain Light Rain
2:52 PM 42.1 °F 39.2 °F 37.9 °F 85% 29.57 in 10.0 mi SSW 4.6 mph - 0.01 in Rain Light Rain
3:14 PM 42.8 °F 38.0 °F 37.4 °F 81% 29.56 in 10.0 mi WSW 8.1 mph - 0.00 in   Overcast
3:25 PM 42.8 °F 37.5 °F 37.4 °F 81% 29.57 in 7.0 mi West 9.2 mph - 0.01 in Rain Light Rain
3:52 PM 41.0 °F 33.5 °F 36.0 °F 82% 29.60 in 10.0 mi West 13.8 mph 19.6 mph 0.03 in Rain Light Rain
4:52 PM 36.0 °F 26.3 °F 30.9 °F 82% 29.67 in 5.0 mi WNW 16.1 mph 29.9 mph 0.00 in Snow Light Snow
5:03 PM 35.6 °F 25.5 °F 30.2 °F 81% 29.66 in 2.0 mi WNW 17.3 mph 26.5 mph 0.00 in Snow Light Snow
5:14 PM 33.8 °F 24.8 °F 30.2 °F 87% 29.67 in 7.0 mi WNW 12.7 mph 21.9 mph 0.00 in Snow Light Snow
5:38 PM 33.8 °F 23.9 °F 28.4 °F 81% 29.69 in 1.8 mi NW 15.0 mph 24.2 mph 0.00 in Snow Light Snow
5:45 PM 33.8 °F 24.8 °F 30.2 °F 87% 29.69 in 0.8 mi NW 12.7 mph 24.2 mph 0.00 in Snow Light Snow
5:49 PM 33.8 °F 24.3 °F 30.2 °F 87% 29.69 in 1.2 mi WNW 13.8 mph 24.2 mph 0.00 in Snow Light Snow
5:52 PM 34.0 °F 25.5 °F 30.0 °F 85% 29.72 in 1.8 mi WNW 11.5 mph 24.2 mph 0.00 in Snow Light Snow
5:54 PM 33.8 °F 24.8 °F 30.2 °F 87% 29.70 in 3.0 mi NW 12.7 mph 24.2 mph 0.00 in Snow Light Snow
6:52 PM 33.1 °F 23.9 °F 28.0 °F 82% 29.75 in 10.0 mi WNW 12.7 mph 19.6 mph 0.00 in   Overcast
7:14 PM 33.8 °F 26.4 °F 28.4 °F 81% 29.75 in 10.0 mi WNW 9.2 mph 17.3 mph N/A   Overcast
7:26 PM 33.8 °F 24.3 °F 28.4 °F 81% 29.76 in 10.0 mi WNW 13.8 mph 17.3 mph N/A   Overcast
7:52 PM 33.1 °F 23.9 °F 28.0 °F 82% 29.80 in 9.0 mi NW 12.7 mph 25.3 mph 0.00 in Snow Light Snow
8:52 PM 33.1 °F 25.5 °F 28.9 °F 85% 29.81 in 10.0 mi WNW 9.2 mph 17.3 mph 0.00 in   Overcast
9:09 PM 32.0 °F 24.8 °F 28.4 °F 87% 29.79 in 5.0 mi West 8.1 mph 16.1 mph N/A   Overcast
9:52 PM 32.0 °F 23.6 °F 28.9 °F 88% 29.83 in 10.0 mi WNW 10.4 mph - N/A   Overcast
10:09 PM 32.0 °F 24.8 °F 28.4 °F 87% 29.81 in 9.0 mi West 8.1 mph 16.1 mph N/A   Overcast
10:52 PM 32.0 °F 24.2 °F 28.0 °F 85% 29.85 in 7.0 mi WNW 9.2 mph 16.1 mph N/A   Overcast
11:04 PM 32.0 °F 22.5 °F 28.4 °F 87% 29.83 in 5.0 mi WNW 12.7 mph 19.6 mph N/A   Overcast
11:36 PM 32.0 °F 24.8 °F 28.4 °F 87% 29.84 in 1.8 mi NW 8.1 mph - N/A   Overcast
11:42 PM 32.0 °F 24.8 °F 28.4 °F 87% 29.84 in 0.8 mi WNW 8.1 mph 16.1 mph N/A   Overcast
11:49 PM 32.0 °F 23.6 °F 28.4 °F 87% 29.84 in 0.5 mi NW 10.4 mph 17.3 mph N/A Fog Fog
11:52 PM 32.0 °F 23.6 °F 28.9 °F 88% 29.86 in 0.5 mi NW 10.4 mph 17.3 mph N/A Fog Fog